Flag for Germany Weather past 2 weeks in Wuppertal, North Rhine-Westphalia, Germany

Now
48 °F

Sprinkles. Partly sunny.


Feels Like: 45 °F
Forecast: 46 / 66 °F
Wind: 8 mph from West

Location: Duesseldorf

Current Time: May 30, 2015 at 2:57:24 PM

Latest Report: May 30, 2015 at 2:20 PM


Visibility: N/A

Pressure: 30.01 "Hg

Humidity: 82%

Dew point: 43 °F

Location of WuppertalLocation

Historic Weather in Wuppertal — Graph

°F

Wuppertal temperature yesterday

Maximum temperature yesterday: 63 °F (at 3:20 PM)
Minimum temperature yesterday: 48 °F (at 11:20 PM)
Average temperature yesterday: 56 °F

Past Weeks' High & Low Weather Summary

 TemperatureHumidityPressure
High70 °F (May 18, 2:50 PM)100% (May 16, 3:50 PM)30.33 "Hg (May 16, 3:50 PM)
Low37 °F (May 21, 4:20 AM)33% (May 22, 3:50 PM)29.65 "Hg (May 18, 6:20 PM)
Average55 °F67%30.05 "Hg
* Reported May 15 1:20 PM — May 30 1:20 PM, Wuppertal, Weather by CustomWeather, © 2015

Note: Actual official high and low records may vary slightly from our data, if they occured in-between our weather recording intervals... More about our weather records

Advertising

Wuppertal weather history for previous 24 hours

 ConditionsComfort  
Time TempWeatherWind HumidityBarometerVisibility
1:20 PM
Sat, May 30
48 °FSprinkles. Broken clouds.17 mph87%29.98 "HgN/A
12:50 PM50 °FSprinkles. Scattered clouds.3 mph88%29.95 "HgN/A
12:20 PM54 °FSprinkles. Broken clouds.7 mph67%29.95 "HgN/A
11:50 AM54 °FSprinkles. Scattered clouds.9 mph67%29.92 "HgN/A
11:20 AM54 °FSprinkles. Scattered clouds.15 mph63%29.92 "HgN/A
10:50 AM55 °FScattered clouds.17 mph63%29.92 "HgN/A
10:20 AM54 °FScattered clouds.15 mph63%29.92 "HgN/A
9:50 AM55 °FScattered clouds.13 mph63%29.92 "HgN/A
9:20 AM54 °FPassing clouds.12 mph77%29.89 "HgN/A
8:50 AM52 °FPassing clouds.12 mph82%29.89 "HgN/A
8:20 AM50 °FPassing clouds.10 mph88%29.89 "HgN/A
7:50 AM50 °FScattered clouds.9 mph88%29.89 "HgN/A
7:20 AM50 °FScattered clouds.9 mph88%29.86 "HgN/A
6:50 AM48 °FPassing clouds.7 mph94%29.86 "HgN/A
6:20 AM48 °FPassing clouds.8 mph87%29.86 "HgN/A
5:50 AM48 °FPassing clouds.7 mph94%29.83 "HgN/A
5:20 AM48 °FPassing clouds.7 mph94%29.83 "HgN/A
4:50 AM48 °FPassing clouds.7 mph94%29.83 "HgN/A
4:20 AM48 °FPassing clouds.8 mph94%29.83 "HgN/A
3:50 AM48 °FPartly cloudy.7 mph94%29.83 "HgN/A
3:20 AM48 °FPartly cloudy.8 mph94%29.80 "HgN/A
2:50 AM48 °FPartly cloudy.7 mph94%29.80 "HgN/A
2:20 AM48 °FPassing clouds.6 mph94%29.80 "HgN/A
1:50 AM48 °FPassing clouds.8 mph94%29.80 "HgN/A
1:20 AM48 °FPartly cloudy.10 mph94%29.80 "HgN/A
12:50 AM48 °FDrizzle. Overcast.12 mph94%29.80 "HgN/A
12:20 AM48 °FDrizzle. Mostly cloudy.13 mph94%29.80 "HgN/A
11:50 PM
Fri, May 29
48 °FDrizzle. Overcast.12 mph94%29.77 "HgN/A
11:20 PM48 °FDrizzle. Overcast.12 mph94%29.80 "HgN/A
10:20 PM50 °FLight rain. Partly sunny.13 mph82%29.80 "HgN/A
9:50 PM57 °FLight rain. Partly sunny.13 mph63%29.77 "HgN/A
9:20 PM57 °FLight rain. Partly sunny.18 mph63%29.77 "HgN/A
8:50 PM57 °FLight rain. Partly sunny.20 mph63%29.74 "HgN/A
8:20 PM59 °FLight rain. Partly sunny.13 mph55%29.74 "HgN/A
7:50 PM59 °FPartly sunny.13 mph51%29.74 "HgN/A
7:20 PM61 °FPartly sunny.15 mph48%29.74 "HgN/A
6:50 PM61 °FSunny.18 mph48%29.74 "Hg10 mi
6:20 PM61 °FSunny.15 mph45%29.74 "Hg10 mi
5:50 PM63 °FSunny.20 mph39%29.74 "Hg10 mi
5:20 PM63 °FSunny.17 mph42%29.74 "Hg10 mi
4:50 PM63 °FPartly sunny.20 mph45%29.77 "HgN/A
4:20 PM63 °FBroken clouds.20 mph49%29.77 "HgN/A
3:50 PM63 °FPartly sunny.20 mph49%29.77 "HgN/A
3:20 PM63 °FBroken clouds.17 mph49%29.77 "HgN/A
2:50 PM61 °FBroken clouds.18 mph48%29.77 "HgN/A
2:20 PM61 °FPartly sunny.14 mph52%29.80 "HgN/A
Weather by CustomWeather, © 2015

See weather overviewHow to use our weather pages